Location: Chilton Park
(37.7711°N, 100.0276°W)
Time: 01:26:55
(UTC+00:00)

Cosmos 1500 Rocket - Pass Details

Date: 03 July 2022
Orbit: 601 x 632 km, 82.5° (Epoch: 16 August)

Event Time Altitude Azimuth Distance (km) Brightness Sun altitude
Exits shadow 09:31:03 21° 169° (S) 1,395 5.0 -17.8°
Maximum altitude 09:33:51 61° 94° (E) 711 4.0 -17.4°
Drops below altitude 10° 09:38:16 10° 14° (NNE) 2,015 7.2 -16.8°
Sets 09:40:32 0° 11° (NNE) 2,929 8.1 -16.5°
